Regional Weather Roundup
Issued by NWS

Home | Current Version | Previous Version | Text Only | Print | Product List | Glossary On
Versions: 1 2 3 4 5 6 7 8 9 10 11 12 13 14 15 16 17 18 19 20 21 22 23 24 25 26 27 28 29 30 31 32 33 34 35 36 37 38 39 40 41 42 43 44 45 46 47 48 49 50
000
ASUS44 KBMX 250010
RWRAL

ALABAMA REGIONAL WEATHER ROUNDUP
NATIONAL WEATHER SERVICE BIRMINGHAM AL
600 PM CST MON NOV 24 2014

NOTE: "FAIR" INDICATES FEW OR NO CLOUDS BELOW 12,000 FEET
WITH NO SIGNIFICANT WEATHER AND/OR OBSTRUCTIONS TO VISIBILITY.

THE REMARK "TC" DENOTES TEMPERATURE IN DEGREES CELSIUS.

ALZ001>011-014-016>018-020-250100-
NORTH ALABAMA

CITY           SKY/WX    TMP DP  RH WIND       PRES   REMARKS
MUSCLE SHOALS  CLEAR     49  37  63 SW6       29.98R
6HR MIN TEMP:  49; 6HR MAX TEMP:  61;

HUNTSVILLE     PTCLDY    53  39  59 W5        29.95R
6HR MIN TEMP:  51; 6HR MAX TEMP:  63;

DECATUR        CLEAR     54  38  54 W7        29.95R
6HR MIN TEMP:  54; 6HR MAX TEMP:  61;

HALEYVILLE     FAIR      49  35  58 CALM      29.99R
6HR MIN TEMP:  49; 6HR MAX TEMP:  58;

GADSDEN        CLEAR     55  41  58 W7        29.92R
6HR MIN TEMP:  55; 6HR MAX TEMP:  70;

$$

ALZ012-013-022-023-030>036-040>044-250100-
WEST CENTRAL ALABAMA

CITY           SKY/WX    TMP DP  RH WIND       PRES   REMARKS
TUSCALOOSA     CLEAR     55  41  59 CALM      29.96R
6HR MIN TEMP:  54; 6HR MAX TEMP:  66;

$$

ALZ015-024>027-033>036-040>044-250100-
CENTRAL ALABAMA

CITY           SKY/WX    TMP DP  RH WIND       PRES   REMARKS
BIRMINGHAM     CLEAR     57  41  55 W8        29.96R
6HR MIN TEMP:  57; 6HR MAX TEMP:  68;

MONTGOMERY     CLEAR     65  48  54 NW9       29.92R
6HR MIN TEMP:  63; 6HR MAX TEMP:  78;

SHELBY CO ARPT CLEAR     57  45  64 NW7       29.94R
6HR MIN TEMP:  57; 6HR MAX TEMP:  69;

MAXWELL AFB    CLEAR     64  49  59 NW6       29.92R
6HR MIN TEMP:  64; 6HR MAX TEMP:  76; 6HR PCP:  0.01;

GREENVILLE     NOT AVBL
$$

ALZ019-021-028-029-037-038-045>048-250100-
EAST CENTRAL ALABAMA

CITY           SKY/WX    TMP DP  RH WIND       PRES   REMARKS
ANNISTON       CLEAR     60  45  57 W7        29.92R
6HR MIN TEMP:  59; 6HR MAX TEMP:  74;

ALEXANDER CITY CLEAR     62  46  53 NW3       29.93R
6HR MIN TEMP:  62; 6HR MAX TEMP:  77;

AUBURN         CLEAR     64  46  52 W6        29.93R
6HR MIN TEMP:  64; 6HR MAX TEMP:  73;

$$

ALZ051>064-250100-
SOUTHWEST ALABAMA

CITY           SKY/WX    TMP DP  RH WIND       PRES   REMARKS
MOBILE         MOCLDY    63  50  62 NW8       29.94R
6HR MIN TEMP:  63; 6HR MAX TEMP:  78;

BROOKLEY FIELD MOCLDY    67  52  58 NW10      29.92R
6HR MIN TEMP:  67; 6HR MAX TEMP:  79;

EVERGREEN      MOCLDY    67  52  58 NW7       29.91R
6HR MIN TEMP:  66; 6HR MAX TEMP:  79;

$$

ALZ049-050-065>069-250100-
SOUTHEAST ALABAMA

CITY           SKY/WX    TMP DP  RH WIND       PRES   REMARKS
DOTHAN         MOCLDY    71  65  81 SW7       29.92R
6HR MIN TEMP:  71; 6HR MAX TEMP:  80;

OZARK          MOCLDY    70  59  69 SW6       29.90R
6HR MIN TEMP:  70; 6HR MAX TEMP:  81;

TROY           CLEAR     67  55  65 NW8       29.90R
6HR MIN TEMP:  66; 6HR MAX TEMP:  80;

EUFAULA        FAIR      66  59  78 N5        29.88R
6HR MIN TEMP:  63; 6HR MAX TEMP:  83; 6HR PCP: TRACE;

$$


USA.gov is the U.S. government's official web portal to all federal, state and local government web resources and services.